GFSWCAN_sfc_thetae_021.txt.gz
Theta_e
298 299 298 298 298 298 298 298 297 298 297 297 298 299 300 300 299 295 290 293 289 281 282 283 283 279 278 277 272 272 273 269 270 270 265 265 258 267 264 269 269 265 260 258 257 255 260 276 274 270 273 278 279 278
298 298 298 298 298 298 298 298 298 298 298 298 298 298 299 299 299 298 287 292 294 285 283 284 286 288 286 285 279 275 276 268 276 267 265 263 261 257 261 262 274 265 269 265 267 266 276 277 276 279 279 278 277 276
297 298 298 298 297 297 297 298 297 297 296 297 297 298 298 299 299 297 289 286 289 285 284 284 282 286 288 287 289 279 276 282 277 279 273 273 269 266 267 262 270 273 276 271 269 275 275 277 278 278 280 277 277 276
297 297 297 297 298 297 297 297 297 296 296 296 297 297 297 298 298 297 290 289 288 283 277 278 283 282 287 288 287 287 285 283 283 281 278 275 269 274 269 272 271 273 273 270 271 275 276 277 278 278 277 277 275 275
296 296 296 297 297 297 297 297 296 296 296 295 296 296 296 296 297 296 293 290 291 284 274 277 278 282 284 284 284 285 284 282 281 278 276 274 278 276 276 275 272 276 273 271 270 276 275 276 278 276 275 274 273 272
295 296 296 296 296 296 296 296 296 296 296 295 295 295 296 296 296 290 283 287 290 290 281 275 276 276 280 283 282 282 282 282 282 279 277 279 280 277 272 270 276 277 278 278 276 279 278 278 275 273 271 271 271 271
295 295 295 296 296 296 296 296 296 296 296 295 295 295 295 295 292 285 282 284 291 291 281 275 268 273 279 278 278 280 280 282 280 279 278 278 277 279 274 270 277 278 278 278 275 272 273 273 271 270 270 269 268 267
294 294 294 295 295 295 295 295 295 295 295 295 295 294 294 295 293 288 291 293 291 285 281 273 266 267 274 271 272 275 275 280 280 278 274 276 277 276 271 276 277 277 272 271 268 268 268 268 268 267 266 266 263 263
293 293 294 294 294 295 295 295 295 295 295 294 294 294 290 288 284 283 293 294 291 284 276 274 266 263 270 272 276 277 278 273 277 274 274 275 273 270 271 272 267 265 264 263 264 265 264 263 262 263 262 261 260 261
292 292 293 293 293 294 295 294 294 294 294 294 289 284 280 282 290 291 286 281 281 281 280 272 262 263 272 269 265 269 276 273 270 272 274 273 270 270 264 263 263 262 261 261 259 260 258 258 258 259 259 260 260 260
291 291 292 292 293 293 293 294 294 294 293 285 282 279 283 290 283 280 275 274 273 272 273 267 272 270 273 265 269 276 272 271 266 264 265 252 257 266 262 260 260 261 260 258 257 258 258 258 257 257 258 258 258 257
290 290 291 291 292 292 292 293 294 290 284 284 284 285 285 281 277 273 271 269 269 265 262 267 267 271 270 277 273 271 269 268 264 255 257 253 264 257 256 257 258 258 255 254 256 256 257 257 257 256 255 255 255 255
289 289 290 290 290 291 292 292 293 292 290 285 281 277 276 275 269 267 262 264 258 256 257 260 263 269 273 275 273 271 267 264 258 258 257 261 257 255 253 254 254 255 255 255 255 255 255 254 255 254 253 254 254 254
289 289 289 289 290 290 290 291 292 291 284 277 274 269 269 266 266 260 260 261 265 263 260 262 266 271 268 271 272 266 267 264 261 257 257 252 251 249 251 252 249 251 251 252 251 252 252 252 253 253 253 253 254 254
288 288 288 288 289 289 290 290 291 287 281 275 274 266 263 260 253 253 251 257 258 259 265 265 265 272 269 269 269 265 262 260 258 258 252 250 251 250 251 250 248 249 250 250 250 250 250 251 251 251 252 254 255 257
288 288 284 288 288 288 289 289 286 284 277 275 270 265 259 263 256 256 252 258 258 263 264 266 262 263 263 264 265 261 258 256 258 246 246 247 246 246 247 247 247 247 247 248 249 249 249 249 249 251 253 254 257 257
286 277 286 287 287 288 288 279 279 268 269 265 260 258 256 259 261 257 257 257 262 258 261 262 259 259 262 257 256 255 255 248 244 242 242 243 244 247 246 245 246 246 246 247 247 248 248 249 251 252 254 256 256 257
278 282 286 286 286 284 275 273 267 264 258 256 260 256 253 256 255 255 255 259 259 259 258 259 259 253 253 252 253 247 243 240 241 242 245 245 243 244 242 243 245 245 246 246 247 246 245 250 253 255 256 256 256 256
282 281 285 287 282 275 271 265 265 258 254 255 255 255 255 255 256 256 255 256 254 255 255 251 252 251 252 245 244 240 239 241 243 247 249 245 243 242 245 245 246 245 246 246 247 251 254 255 256 256 256 256 255 256
281 281 281 279 279 271 264 260 263 259 256 255 256 254 254 253 252 246 246 249 250 250 251 249 248 242 245 244 245 244 246 248 244 245 247 246 245 243 245 248 249 249 250 252 254 255 255 255 256 256 257 256 256 255
274 274 276 271 266 264 261 260 256 256 255 254 253 252 250 248 243 242 243 244 247 241 243 240 239 240 240 241 243 243 245 245 244 245 245 244 246 248 252 253 253 253 253 252 252 253 253 253 254 255 255 255 256 256
268 272 264 268 264 261 259 258 258 257 254 251 249 246 243 244 242 242 244 245 242 242 241 240 240 239 240 242 241 240 241 239 240 242 248 249 250 251 252 253 252 251 252 252 252 252 253 253 254 254 254 254 255 255
265 265 260 258 259 257 254 257 255 251 253 248 243 244 243 242 242 246 244 240 240 240 238 238 239 237 240 239 239 241 241 242 243 245 248 250 251 252 253 253 252 250 250 251 252 252 252 253 253 253 253 253 253 252
260 253 251 249 250 247 246 246 248 246 244 243 242 243 243 241 245 244 244 238 241 237 240 240 238 242 242 243 242 243 246 247 249 250 250 250 252 252 253 253 252 252 251 251 251 251 252 252 252 251 250 249 249 248
255 245 247 243 244 245 243 242 242 245 242 239 241 242 243 241 243 241 242 241 238 238 240 239 240 241 244 243 244 246 249 250 251 250 251 251 252 253 253 254 253 252 252 250 250 250 250 251 250 249 249 248 247 246
242 240 242 237 242 244 240 242 240 241 240 241 240 240 238 240 242 244 242 240 239 241 244 248 247 246 245 245 246 249 251 251 250 250 251 252 252 251 250 251 251 252 251 250 249 247 247 248 248 248 248 247 247 242
241 240 240 239 240 240 241 239 239 241 240 242 239 240 241 243 242 245 242 242 245 246 247 248 248 249 249 248 248 251 252 252 252 251 251 251 253 252 251 250 250 251 249 248 247 245 246 246 247 248 247 245 241 238
239 237 242 239 238 235 238 236 238 240 240 239 239 241 243 245 245 245 246 247 246 246 248 248 251 251 251 252 252 252 250 249 249 250 249 250 250 251 251 251 251 256 252 249 249 249 247 248 248 248 246 245 245 240
238 235 237 239 237 239 238 239 239 238 238 236 241 241 241 242 241 242 246 246 245 247 248 249 249 250 251 250 249 248 248 247 248 248 248 248 249 251 250 250 250 249 248 247 250 254 252 251 251 250 245 244 244 238
238 233 238 236 240 241 239 236 236 233 233 236 234 240 240 241 241 240 244 245 247 247 245 243 241 243 244 243 243 244 241 244 247 248 246 246 248 247 243 243 244 245 243 240 245 246 249 246 246 243 243 243 243 242
233 233 237 236 239 236 233 230 229 230 231 232 230 236 239 239 242 242 242 242 241 238 241 242 240 236 240 240 240 240 246 243 242 245 245 245 246 246 247 248 248 246 243 242 242 242 243 243 242 243 244 244 244 245
233 233 238 241 239 234 231 231 230 233 231 234 236 230 236 238 241 243 241 240 239 240 244 241 241 247 244 246 242 244 248 247 245 247 247 248 249 250 250 249 247 245 244 245 244 244 244 245 246 246 246 245 245 245
230 229 229 234 237 238 234 234 235 236 234 234 235 231 231 236 242 244 243 238 242 243 243 245 245 243 244 246 248 249 250 250 250 254 255 255 253 253 252 250 248 246 246 246 247 247 246 246 246 246 246 246 246 246

GFSWCAN_sfc_thetae_024.txt.gz
Theta_e
299 299 299 298 299 299 299 299 299 299 298 298 298 298 299 299 300 297 293 293 289 284 282 282 283 279 277 276 270 270 272 269 271 270 263 263 259 266 263 268 268 266 259 256 253 255 257 273 273 268 272 277 275 277
298 299 299 298 298 299 299 299 298 299 299 298 298 298 298 298 299 299 290 292 293 286 284 285 286 287 285 283 278 272 275 268 277 267 267 264 260 256 262 264 273 264 268 262 265 264 274 274 276 279 279 277 277 277
298 298 299 299 299 299 298 299 298 298 299 298 298 298 298 298 298 298 293 290 290 285 284 283 282 286 288 287 288 278 275 281 277 279 272 272 268 266 266 265 269 273 275 271 271 274 275 277 279 278 278 277 279 278
297 297 297 298 298 298 298 298 298 298 298 298 297 297 297 297 298 298 292 291 290 284 278 276 282 282 287 288 286 286 284 282 282 281 277 273 271 275 272 273 272 273 273 270 272 275 276 277 278 278 279 278 276 275
297 297 297 297 297 297 297 298 298 298 298 297 297 297 296 296 297 295 293 292 292 285 276 271 276 282 284 285 284 285 284 282 281 278 276 274 277 276 276 275 272 276 274 271 270 276 275 276 279 277 276 275 273 272
296 296 296 296 296 296 297 297 297 297 297 297 297 296 296 296 296 290 284 291 292 291 281 275 276 277 281 282 281 282 282 282 281 278 277 278 280 277 272 270 276 277 278 278 276 279 278 278 275 272 271 271 271 270
295 295 295 296 296 296 296 296 297 296 296 297 297 296 296 296 291 286 283 284 292 290 281 276 272 272 279 279 276 277 280 278 280 278 277 277 277 278 274 270 277 278 278 278 274 272 274 272 270 269 269 268 267 266
294 294 295 295 295 295 295 296 296 296 296 296 296 296 296 295 293 288 291 293 292 286 283 274 269 266 273 269 271 275 275 278 279 277 276 276 275 276 271 276 278 277 271 269 267 268 267 267 267 266 266 265 262 263
293 293 293 294 294 294 294 295 295 296 296 296 296 296 292 288 284 285 294 295 291 284 276 274 264 262 272 271 273 275 276 272 275 274 275 275 272 270 272 275 273 265 266 263 264 265 263 262 262 262 261 261 260 260
291 292 292 293 293 293 294 294 295 295 296 295 292 284 280 284 291 291 287 282 282 281 280 271 263 262 273 272 272 272 274 268 268 270 273 273 272 275 265 263 263 262 261 261 260 259 257 257 258 259 259 259 259 259
290 291 291 291 292 292 293 293 294 294 295 287 282 280 282 290 283 280 276 275 273 272 275 274 273 271 275 270 270 273 268 264 264 264 268 264 262 269 262 260 261 261 260 258 257 258 258 257 257 257 257 258 257 257
289 290 290 290 291 292 292 293 294 291 285 285 283 285 285 281 277 273 271 271 268 265 261 269 270 274 272 275 270 270 266 264 264 263 265 263 265 258 258 258 258 257 255 254 255 256 257 257 257 256 255 254 254 255
289 289 289 290 290 291 292 292 292 292 289 285 281 277 277 275 270 268 264 261 258 257 262 264 266 271 271 274 271 269 264 264 264 263 263 264 257 255 254 255 254 254 253 253 253 254 254 254 254 254 253 253 252 252
289 289 289 289 290 290 291 291 292 291 285 278 274 269 270 268 264 261 260 262 268 265 262 264 261 266 264 268 270 267 267 265 261 260 258 255 252 250 251 252 248 249 248 251 250 251 252 252 252 252 252 252 251 250
289 289 289 289 289 289 290 290 291 288 281 275 273 267 265 257 252 249 248 256 258 259 265 264 263 271 263 267 268 266 262 260 258 258 255 250 250 249 249 248 246 247 248 248 249 249 250 250 249 249 249 248 249 252
287 287 285 288 288 289 289 288 285 284 276 275 269 266 257 258 251 251 248 251 256 265 264 266 263 262 263 264 262 259 257 256 259 247 246 247 245 245 245 245 246 245 245 246 246 245 247 246 247 248 248 249 251 254
285 274 286 288 288 288 288 282 277 267 267 266 260 250 254 255 256 252 255 256 263 263 265 266 264 262 263 258 256 256 256 252 244 242 241 242 244 244 243 242 243 243 244 244 242 244 243 245 245 244 246 252 253 256
277 280 286 286 284 280 272 270 267 265 258 255 255 250 250 249 250 253 257 261 263 264 263 264 263 259 257 253 253 250 244 240 239 241 243 243 241 241 239 241 243 243 244 243 244 244 240 244 247 250 252 255 256 257
282 281 285 286 281 271 267 263 263 258 252 252 254 253 253 250 255 255 255 258 258 258 262 261 262 260 258 251 246 240 238 240 243 244 245 242 241 241 242 244 246 244 243 243 243 247 249 249 253 255 256 256 256 256
280 281 280 280 278 269 263 261 263 257 249 251 252 251 253 253 253 252 253 253 255 257 260 252 250 246 248 245 244 243 244 245 242 242 243 244 244 242 244 244 246 246 246 247 250 254 253 254 254 255 255 256 255 255
273 274 276 271 267 264 261 260 256 257 255 251 254 254 251 253 251 251 252 250 253 246 248 242 240 239 238 238 240 240 244 245 244 243 242 242 244 245 246 247 248 251 252 252 252 252 253 252 253 254 254 255 255 255
265 272 266 269 265 260 258 258 258 257 254 251 252 252 251 252 249 247 246 247 245 242 241 240 238 238 239 241 241 238 239 238 237 240 246 246 245 249 250 252 251 251 252 252 251 251 252 253 254 253 253 253 254 254
265 265 260 259 261 258 253 257 256 254 255 252 251 252 247 246 244 247 245 240 240 238 236 237 237 235 239 237 237 238 237 240 242 242 243 246 249 252 252 251 251 251 251 252 252 252 252 253 253 252 252 252 251 251
260 253 251 250 253 250 248 249 251 251 250 249 250 248 245 242 245 244 244 238 241 236 238 239 237 241 240 241 241 241 242 243 246 248 249 249 251 252 252 252 252 252 252 252 252 252 252 252 252 251 251 249 248 248
255 246 248 244 244 246 244 244 242 245 242 239 241 242 242 238 242 241 243 242 238 238 238 235 237 239 242 242 243 243 245 250 251 250 251 252 251 251 253 253 253 253 252 251 250 250 250 251 250 250 250 248 247 246
242 239 242 236 241 244 240 242 240 241 239 241 240 238 236 240 243 245 242 241 238 240 241 244 246 244 244 244 245 246 250 251 250 250 251 252 252 251 250 250 251 252 251 250 248 248 248 249 248 248 248 248 248 244
242 240 239 238 239 239 240 238 238 240 241 242 239 240 241 244 243 245 242 239 241 244 246 250 249 248 248 246 248 249 251 253 252 252 251 251 252 252 252 250 251 252 250 249 248 247 247 247 247 248 248 248 243 241
239 237 241 239 238 235 238 236 238 241 240 238 239 242 244 245 246 244 245 245 244 244 245 247 250 251 250 251 251 252 250 249 249 250 250 251 251 251 251 252 252 257 253 251 250 249 248 248 248 248 248 248 248 242
238 235 236 239 237 239 238 239 239 237 238 236 241 241 241 241 240 240 244 244 242 246 246 246 247 247 248 247 248 247 247 248 249 248 248 248 249 252 251 251 251 250 249 248 251 255 252 250 250 250 250 248 246 240
238 233 238 236 240 241 239 235 235 232 232 235 233 239 240 240 240 236 240 243 245 245 244 243 242 245 245 244 245 246 241 243 247 248 246 246 248 246 243 243 244 245 243 241 246 246 249 246 245 242 242 243 243 242
233 232 237 236 239 236 233 229 228 229 230 231 229 235 238 237 240 239 240 239 239 238 241 242 240 236 240 240 240 241 246 243 241 244 245 246 246 245 246 247 248 245 243 243 243 242 243 242 241 243 244 244 245 245
232 233 237 241 239 234 230 230 229 233 231 233 235 230 237 239 242 244 243 241 240 241 243 241 240 245 243 244 240 241 247 246 245 247 247 249 249 249 249 249 246 243 243 245 245 244 243 243 245 246 246 246 246 245
231 229 229 234 237 238 234 234 235 236 234 234 235 231 230 235 242 244 242 238 242 242 243 243 243 241 242 244 248 249 250 249 249 254 255 255 254 254 252 250 248 246 246 247 247 247 247 247 247 247 247 246 246 246

GFSWCAN_sfc_thetae_030.txt.gz
Theta_e
300 300 300 300 300 300 299 299 300 300 299 300 300 299 299 299 300 298 293 294 290 284 285 285 286 282 281 282 278 277 278 276 277 274 272 271 269 271 270 272 271 271 269 268 266 265 265 277 276 273 279 280 281 281
298 299 299 299 300 300 300 300 300 300 300 299 300 300 299 299 299 299 292 295 294 286 285 288 289 290 288 287 284 279 281 275 280 276 274 274 269 268 271 267 275 269 274 272 270 272 278 279 280 282 283 281 281 281
296 297 298 298 299 300 300 300 300 300 299 300 300 300 300 299 299 298 293 294 291 285 285 285 285 289 289 289 291 281 280 283 281 284 278 276 271 273 269 269 273 276 278 273 274 277 278 280 282 283 283 282 283 283
297 296 296 297 297 298 299 299 299 299 299 300 300 300 299 300 299 299 293 293 291 286 281 283 286 286 291 290 289 288 287 285 285 283 279 276 273 277 274 275 274 277 277 274 274 277 279 280 281 282 282 283 281 277
296 296 296 296 296 297 297 298 298 298 299 299 299 299 299 299 299 298 295 294 294 287 280 281 282 285 288 289 287 287 286 284 282 279 278 276 279 277 278 277 275 278 276 273 272 278 278 279 282 283 280 280 276 274
296 296 296 296 296 296 296 297 298 298 298 298 298 298 299 299 299 292 284 291 294 292 283 277 285 281 284 286 286 285 285 284 283 280 279 280 282 278 274 272 278 280 281 281 278 281 281 282 282 278 276 274 272 271
294 295 295 295 295 296 296 296 296 297 297 297 298 298 298 298 295 285 285 289 295 293 283 278 278 279 279 283 283 283 284 283 282 280 279 279 279 280 276 272 278 280 281 280 281 280 278 279 277 272 272 270 268 267
293 293 294 294 295 295 295 296 296 296 297 297 297 297 297 298 296 290 291 294 294 287 284 277 276 274 276 277 278 281 280 281 281 280 279 278 279 278 272 277 279 280 280 279 279 272 272 271 270 268 267 266 264 265
292 292 292 293 293 294 294 295 295 295 296 296 296 296 294 291 285 287 295 295 292 286 278 277 273 271 275 275 277 277 279 275 280 276 277 277 275 271 275 276 277 278 275 272 268 267 267 268 266 264 263 262 262 263
291 291 291 292 292 293 293 294 294 295 295 295 292 285 282 286 294 293 289 284 282 282 282 275 274 273 276 275 274 275 276 274 270 273 277 274 273 277 276 271 267 266 265 266 266 264 264 264 263 262 261 261 261 261
289 290 290 290 291 292 292 292 293 293 294 287 284 283 287 293 286 283 278 277 278 275 279 276 275 271 275 272 273 276 273 274 269 271 271 269 267 274 266 263 263 263 262 261 262 262 261 260 260 260 260 259 259 258
289 289 289 290 290 290 291 292 292 290 286 287 286 287 286 282 279 275 274 276 273 272 270 273 273 278 275 278 275 275 271 272 267 266 267 265 270 263 262 260 259 259 257 257 258 258 258 258 258 257 257 256 256 256
289 289 289 289 290 290 290 291 292 292 291 285 283 279 278 277 271 270 268 267 268 265 268 269 271 274 275 277 274 273 269 268 266 265 265 267 262 258 257 256 255 255 255 255 255 255 255 255 255 255 254 254 253 252
288 288 289 289 289 290 290 290 291 290 285 278 276 271 272 270 272 271 269 268 271 270 267 269 268 271 272 273 273 268 268 266 263 261 263 269 257 254 255 254 254 253 251 252 252 252 252 252 253 253 252 252 250 250
289 288 289 289 289 290 290 290 290 287 283 276 275 269 270 267 263 261 259 266 267 272 271 268 268 271 269 269 270 266 262 262 263 264 268 258 254 253 253 253 252 251 251 250 250 249 250 250 250 250 250 249 249 248
286 286 284 288 289 289 290 289 286 285 277 274 271 268 261 266 264 260 260 266 263 271 270 271 268 267 266 267 265 264 263 261 266 264 257 253 251 250 250 250 250 249 248 248 248 248 248 247 247 249 247 248 248 249
284 277 285 288 288 288 287 281 276 268 269 267 263 260 262 263 262 259 261 264 267 270 269 268 265 265 267 265 262 264 263 269 257 251 251 252 251 250 248 247 247 246 247 247 246 246 246 247 244 245 249 253 251 253
277 280 285 286 283 277 268 269 268 266 261 258 262 258 258 257 257 258 260 263 268 268 268 268 267 264 262 260 261 261 254 250 250 250 251 249 248 247 246 248 247 246 247 246 245 245 245 246 249 252 250 253 253 256
280 281 284 284 278 270 267 264 264 259 254 255 256 257 256 255 257 257 258 260 261 261 266 266 266 263 262 259 256 252 251 253 252 251 251 247 246 246 245 245 245 247 246 248 250 251 251 250 251 253 255 256 256 257
281 280 280 279 277 268 263 260 262 259 257 255 256 255 255 255 255 254 255 256 260 263 264 263 261 256 256 254 253 254 253 252 251 250 250 250 248 245 248 249 251 249 250 250 251 252 253 254 255 255 255 255 255 255
274 273 276 269 264 262 259 257 254 253 253 253 253 254 253 253 252 253 254 253 259 259 257 252 250 248 248 248 248 250 250 250 250 251 251 250 248 248 249 250 249 251 252 252 252 253 253 253 254 254 254 254 255 255
267 272 268 270 264 260 257 257 255 256 253 250 251 253 251 251 249 248 248 255 254 250 249 250 251 249 248 249 246 242 243 242 241 246 246 249 250 250 250 251 251 251 252 252 252 252 253 254 254 254 254 253 254 254
266 266 261 260 258 256 253 258 254 252 252 252 251 252 250 249 250 251 255 250 247 244 243 244 243 239 242 237 236 238 237 243 246 246 246 248 248 248 250 251 252 252 252 253 254 253 253 254 254 254 254 253 253 253
261 253 252 252 251 248 250 250 254 251 249 250 251 250 249 248 248 252 254 249 247 241 241 239 240 243 242 242 244 243 243 242 245 245 245 248 250 251 252 253 253 253 253 253 253 253 254 253 253 253 253 253 252 252
256 245 247 245 246 246 247 247 249 251 246 245 246 248 246 242 249 249 248 245 242 244 243 238 239 242 246 243 243 243 239 245 248 249 250 250 252 252 253 253 254 254 255 253 253 253 253 253 253 252 252 252 251 251
243 239 242 238 243 245 242 245 248 248 244 246 245 241 239 245 248 247 244 244 243 243 241 243 244 243 244 244 247 248 249 246 248 251 252 252 253 253 253 253 252 254 254 254 253 252 252 252 251 251 251 252 252 251
242 240 239 237 238 239 239 238 238 242 243 245 241 241 242 245 245 245 244 240 242 242 241 244 245 246 249 250 249 248 247 251 253 254 254 254 254 254 254 252 252 254 254 253 252 251 251 251 251 251 251 251 252 251
238 236 240 239 238 235 238 236 238 240 240 239 238 243 244 244 245 245 244 243 240 240 241 244 248 250 250 250 250 252 252 252 252 252 252 252 252 253 253 254 254 258 254 253 253 252 251 251 251 251 250 250 251 252
237 234 235 239 237 241 238 241 241 240 239 238 242 243 244 242 241 241 244 242 238 244 246 248 248 247 249 249 248 248 249 250 250 249 248 249 250 252 249 249 250 251 252 252 254 257 254 252 251 251 251 251 251 249
237 233 239 238 241 241 238 235 235 233 233 235 234 238 239 239 239 235 237 240 244 245 245 247 249 251 252 252 250 248 243 244 248 249 247 247 249 249 247 249 250 251 250 248 249 250 252 251 249 246 247 247 248 248
232 231 236 236 238 235 232 228 227 228 229 229 227 233 236 236 240 240 243 242 243 245 247 249 250 249 250 250 250 245 248 243 239 244 246 248 249 249 250 251 251 249 248 247 247 246 247 246 245 245 245 246 246 247
234 232 236 240 239 233 229 229 228 231 230 234 236 234 240 242 247 249 247 246 248 249 251 251 250 252 251 251 245 241 246 243 247 250 251 251 251 252 252 251 249 246 245 247 246 246 245 244 246 247 247 247 247 247
240 238 238 240 242 243 239 237 238 238 236 236 236 231 232 238 246 247 246 244 247 248 249 249 248 247 243 242 243 246 250 251 252 256 258 257 257 256 254 253 250 248 247 248 248 248 247 247 247 247 247 247 247 247

GFSWCAN_sfc_thetae_033.txt.gz
Theta_e
299 300 300 300 300 301 300 300 301 301 301 301 300 301 301 301 301 298 294 299 292 285 287 287 288 284 284 284 280 279 280 279 279 275 275 274 272 274 272 275 274 272 271 270 271 268 266 280 278 274 279 282 282 282
298 298 299 300 300 300 301 300 300 301 300 300 300 300 301 301 301 300 292 294 295 286 287 291 291 291 290 289 286 281 284 279 282 278 278 278 273 274 273 269 277 270 275 273 273 273 280 281 281 283 283 282 282 282
297 297 297 298 298 299 300 300 300 300 301 301 300 300 300 301 300 299 296 294 291 285 285 286 285 291 292 292 293 284 284 286 284 287 283 279 274 277 271 272 274 277 280 275 275 277 279 281 283 283 283 283 284 284
297 297 297 297 297 297 298 298 299 300 300 300 300 300 300 300 300 299 294 294 291 286 281 284 290 289 294 293 291 291 289 288 287 286 281 279 275 280 275 277 276 278 279 276 276 278 280 281 282 282 283 283 283 283
296 297 297 297 297 297 297 297 297 298 299 299 300 300 300 300 300 299 296 295 295 288 282 283 285 289 290 291 290 290 288 286 283 280 279 277 280 279 279 278 276 279 277 275 273 279 279 280 283 283 282 282 282 281
295 296 296 297 297 297 297 297 297 297 297 298 299 299 299 299 299 294 286 293 295 293 284 278 288 286 287 289 288 287 287 285 284 281 280 281 283 279 275 273 279 281 282 282 279 282 282 283 283 284 281 281 278 276
295 295 295 296 296 296 296 296 296 296 297 297 298 298 299 299 297 287 285 291 295 293 283 279 279 282 283 286 286 286 287 284 284 282 280 280 281 281 276 272 279 281 282 283 283 282 280 281 280 281 276 275 272 270
294 294 294 295 295 295 295 295 295 296 296 296 297 298 298 298 297 290 294 293 295 288 284 278 277 277 281 279 279 284 281 281 282 281 281 279 280 280 273 278 281 281 282 282 282 279 277 276 274 271 271 269 268 268
292 293 293 293 293 294 294 294 295 295 296 296 296 297 295 291 286 288 296 296 294 287 280 279 276 274 278 280 281 279 282 277 282 278 278 279 276 273 277 278 279 280 279 278 272 270 270 270 271 268 267 265 265 266
291 291 292 292 292 292 293 293 294 295 295 295 293 285 283 286 295 294 290 284 283 283 283 279 283 277 279 277 276 277 278 276 273 276 280 275 274 279 280 279 274 270 269 269 268 268 266 266 267 266 265 265 264 263
290 290 290 290 291 291 292 292 293 294 294 288 284 284 288 294 288 284 281 279 280 277 280 281 280 275 278 275 275 279 275 276 270 274 273 272 272 277 278 269 267 266 265 264 264 264 263 263 265 264 263 262 261 260
290 290 290 290 290 290 291 292 292 290 287 287 287 287 286 284 282 278 276 278 276 275 276 277 278 281 277 281 277 276 273 273 269 272 271 268 274 271 268 265 263 262 261 259 260 260 260 260 260 259 258 258 257 257
289 289 289 289 289 289 290 291 292 292 291 286 284 281 280 279 273 271 270 273 273 274 274 275 275 279 277 278 276 274 271 269 270 268 267 272 272 263 261 259 257 257 258 258 257 257 257 257 257 256 255 255 254 253
289 289 289 289 289 289 290 290 291 290 285 280 278 273 274 272 274 275 276 277 278 277 274 277 275 275 277 274 275 270 270 268 266 265 267 274 269 260 259 258 256 255 255 255 255 255 254 254 254 255 254 253 251 251
289 289 289 288 289 289 289 290 290 288 284 278 277 271 273 274 270 268 268 272 272 277 275 273 273 275 273 273 273 268 265 265 266 267 273 269 259 256 255 255 254 254 253 253 253 252 252 252 252 251 251 251 251 250
287 287 285 287 288 289 289 289 287 285 281 278 273 270 266 271 270 266 267 271 270 275 276 276 272 270 269 271 268 267 265 263 269 271 263 257 255 255 254 253 253 252 251 251 251 251 251 249 249 250 249 249 249 250
284 279 285 286 286 287 286 283 278 272 273 269 266 264 266 268 269 267 268 269 270 274 273 272 268 268 271 268 266 270 268 272 263 258 258 257 255 253 251 251 250 249 250 250 250 249 249 250 247 248 249 254 252 254
279 281 287 286 283 278 271 270 271 270 264 262 265 262 261 261 262 263 264 267 270 271 271 271 271 267 267 265 267 270 260 254 256 256 256 253 252 251 252 253 250 250 250 248 248 248 247 248 251 254 253 255 254 256
280 281 282 283 279 272 268 265 265 263 258 259 259 260 260 259 260 260 261 263 264 265 270 270 269 268 268 268 265 259 257 258 256 254 253 251 252 252 251 249 250 250 249 251 252 254 253 251 253 254 255 256 256 257
281 280 280 277 277 270 265 262 265 262 259 258 259 258 258 258 258 259 260 260 262 267 267 267 269 262 261 257 256 258 257 256 256 254 253 253 252 249 251 252 254 253 253 252 253 253 255 255 256 256 255 256 255 255
275 275 276 271 266 263 261 260 258 257 257 256 256 258 256 257 257 258 259 257 263 263 263 256 254 252 251 251 252 255 255 257 256 257 256 253 252 253 252 252 252 254 254 254 254 254 254 254 255 255 255 255 255 256
270 273 270 271 264 261 259 259 258 258 256 254 256 257 256 256 256 255 252 258 259 253 252 253 253 252 252 252 250 249 249 250 250 250 252 252 251 252 253 254 253 253 253 254 254 254 254 255 255 255 255 255 255 255
267 268 264 263 260 259 255 260 257 255 256 255 255 256 254 254 252 253 256 254 251 247 246 247 246 245 249 246 246 246 245 249 252 252 252 253 254 253 254 254 254 253 253 254 255 255 255 255 255 255 255 255 255 255
262 254 253 253 256 253 254 254 256 255 255 255 256 255 253 252 250 255 257 254 249 248 248 247 249 249 249 249 251 250 249 249 251 250 251 252 253 253 254 254 254 254 255 255 255 255 255 255 255 255 255 254 254 254
257 247 249 249 251 252 251 253 253 255 253 251 253 253 250 247 254 254 254 253 251 250 249 246 248 250 251 250 250 250 243 250 253 253 252 253 254 254 254 255 255 256 256 254 254 255 255 254 254 254 254 253 253 253
246 242 246 245 248 250 248 251 250 250 250 252 250 247 247 251 253 252 251 251 250 250 248 248 250 250 250 251 252 251 252 249 251 253 254 254 254 254 254 255 255 255 256 256 255 254 254 254 253 253 253 253 253 252
246 244 244 243 244 245 246 245 245 249 250 250 248 249 250 251 249 251 251 249 249 249 248 250 251 252 254 252 252 252 252 251 253 255 256 256 256 256 256 255 254 256 256 255 255 254 253 253 253 253 253 253 253 253
242 241 242 243 244 243 244 244 246 245 246 244 244 246 247 248 248 251 250 249 246 246 247 248 250 252 253 254 255 254 254 254 254 254 255 255 255 255 254 255 255 259 256 255 255 254 253 253 253 253 253 252 253 253
243 240 239 243 244 246 244 246 246 245 243 244 247 249 249 249 248 248 249 247 246 248 249 250 251 252 253 254 254 254 255 254 253 250 250 251 252 253 252 252 252 253 254 254 256 258 256 254 254 253 253 253 253 252
241 237 244 244 246 246 243 240 242 239 238 239 238 242 245 247 247 243 245 247 250 250 249 250 252 253 254 255 255 255 253 252 251 251 249 249 250 251 251 252 253 254 254 252 252 252 254 253 251 248 249 249 250 250
238 239 242 243 243 242 239 235 234 234 235 237 234 239 243 243 245 246 247 247 247 249 250 252 252 253 254 254 254 255 254 249 245 245 246 249 251 251 252 253 254 253 252 250 250 249 249 249 248 248 248 248 248 248
242 239 241 243 243 239 236 238 238 240 239 242 244 241 244 246 251 252 250 249 251 252 253 253 253 254 254 254 253 251 249 248 249 251 251 253 254 254 254 254 254 252 250 250 249 248 247 246 247 248 248 248 248 248
243 242 243 244 247 246 243 242 246 246 245 245 243 240 241 243 248 251 251 249 248 248 250 251 250 250 250 249 249 250 251 253 254 258 259 259 258 258 258 257 256 253 251 251 250 249 248 247 247 247 247 247 248 248